[Date Prev][Date Next][Thread Prev][Thread Next] - [Date Index][Thread Index][Author Index]

2 Line ISS Keps 11-25



ISS
1 25544U 98067A   02329.18600725  .00030612  00000-0  37975-3 0  4143
2 25544  51.6382 324.5870 0013447 175.2416 283.9413 15.59653810229085


----
Via the sarex mailing list at AMSAT.ORG courtesy of AMSAT-NA.
To unsubscribe, send "unsubscribe sarex" to Majordomo@amsat.org



AMSAT Top AMSAT Home